CW2099 Weather Reports


Display with metric or nautical units.
time (UTC)temp
F
wind
direction
speed
MPH
gust
MPH
rain 1hr
in
rain 24hr
in
rain mn
in
humidity
%
barometer
mb
20260905060056 63 271 0.0 6.0 0.00 0.07 0.00 87 1015.1
20260905054555 63 265 1.0 4.0 0.00 0.07 0.00 86 1015.0
20260905053108 63 266 3.0 6.0 0.00 0.07 0.00 86 1015.1
20260905050052 63 272 2.0 6.0 0.00 0.08 0.07 86 1014.9
20260905044551 63 265 4.0 7.0 0.00 0.08 0.07 86 1014.9
20260905043050 63 265 4.0 7.0 0.00 0.08 0.07 86 1015.0
20260905040050 63 275 2.0 6.0 0.00 0.08 0.07 86 1014.9
20260905034552 63 265 1.0 7.0 0.00 0.08 0.07 86 1015.0
20260905033054 63 263 2.0 4.0 0.00 0.08 0.07 86 1015.0
20260905030056 63 267 0.0 6.0 0.00 0.08 0.07 86 1015.1
20260905024620 63 253 5.0 9.0 0.00 0.08 0.07 86 1015.0
20260905023055 64 269 3.0 8.0 0.00 0.08 0.07 85 1015.0
20260905020050 64 265 3.0 7.0 0.00 0.08 0.07 85 1014.9
20260905014546 64 260 1.0 9.0 0.00 0.08 0.07 86 1014.9
20260905013045 65 277 5.0 9.0 0.00 0.08 0.07 85 1014.3
20260905010044 65 269 4.0 10.0 0.00 0.08 0.07 85 1014.4
20260905004550 65 265 5.0 11.0 0.00 0.08 0.07 85 1014.1
20260905003040 66 261 6.0 12.0 0.00 0.08 0.07 85 1014.1
20260905000039 66 266 6.0 10.0 0.00 0.08 0.07 85 1014.0
20260904234546 66 257 3.0 10.0 0.00 0.08 0.07 85 1013.8
20260904233052 67 263 6.0 10.0 0.00 0.08 0.07 85 1013.4
20260904230035 67 267 3.0 6.0 0.01 0.08 0.07 85 1013.2
20260904224542 67 271 2.0 4.0 0.01 0.08 0.07 85 1013.3
20260904223040 68 271 0.0 6.0 0.01 0.08 0.07 86 1013.1
20260904220034 68 271 2.0 6.0 0.00 0.07 0.06 86 1012.9
20260904214541 68 268 1.0 6.0 0.00 0.07 0.06 86 1012.6
20260904213033 68 275 0.0 3.0 0.00 0.07 0.06 86 1012.5
20260904210031 68 281 2.0 8.0 0.00 0.07 0.06 86 1012.3
20260904204531 68 281 3.0 9.0 0.00 0.07 0.06 86 1012.1
20260904203032 68 274 3.0 5.0 0.00 0.07 0.06 86 1012.2
20260904200031 68 267 3.0 6.0 0.01 0.07 0.06 86 1012.4
20260904194529 67 269 4.0 7.0 0.01 0.07 0.06 86 1012.5
20260904193041 67 271 3.0 6.0 0.01 0.07 0.06 86 1012.5
20260904190025 67 269 1.0 6.0 0.00 0.06 0.05 87 1012.6
20260904184525 67 270 2.0 4.0 0.00 0.06 0.05 87 1012.5
20260904183024 67 269 2.0 4.0 0.00 0.06 0.05 87 1012.5
20260904180022 67 266 2.0 4.0 0.00 0.06 0.05 87 1012.6
20260904174527 66 265 1.0 3.0 0.00 0.06 0.05 87 1012.4
20260904173021 66 265 2.0 6.0 0.00 0.06 0.05 87 1012.4
20260904170020 66 265 2.0 6.0 0.00 0.10 0.05 87 1012.4
20260904164520 66 270 1.0 2.0 0.00 0.10 0.05 87 1012.4
20260904163024 66 270 1.0 4.0 0.00 0.10 0.05 87 1012.3
20260904160021 66 283 1.0 3.0 0.00 0.10 0.05 87 1012.2
20260904154517 66 283 1.0 3.0 0.00 0.10 0.05 87 1012.2
20260904153014 66 271 1.0 3.0 0.00 0.10 0.05 87 1012.3
20260904150015 65 263 2.0 6.0 0.00 0.10 0.05 87 1012.2
20260904144510 65 286 0.0 2.0 0.00 0.10 0.05 87 1012.2
20260904143011 65 286 1.0 3.0 0.00 0.10 0.05 87 1012.2
20260904140006 64 275 0.0 2.0 0.00 0.10 0.05 87 1012.3
20260904134507 64 275 0.0 3.0 0.00 0.10 0.05 87 1012.5
20260904133006 64 283 0.0 2.0 0.00 0.10 0.05 87 1012.4
20260904130006 63 277 0.0 2.0 0.00 0.10 0.05 87 1012.3
20260904124505 63 281 2.0 4.0 0.00 0.10 0.05 86 1012.2
20260904123005 63 292 2.0 3.0 0.00 0.10 0.05 86 1012.2
20260904120007 63 281 0.0 5.0 0.00 0.10 0.05 86 1012.2
20260904114503 62 268 3.0 7.0 0.00 0.10 0.05 86 1012.1
20260904113002 62 267 2.0 7.0 0.01 0.10 0.05 86 1011.8
20260904110001 62 268 2.0 6.0 0.01 0.10 0.05 86 1011.2
20260904104611 62 265 4.0 8.0 0.01 0.10 0.05 86 1011.9
20260904103106 63 260 4.0 10.0 0.02 0.10 0.05 85 1012.0
20260904100058 63 288 3.0 7.0 0.01 0.09 0.04 85 1012.0
20260904094556 63 279 5.0 9.0 0.04 0.09 0.04 85 1011.7
20260904093056 63 274 4.0 11.0 0.03 0.08 0.03 85 1012.3
20260904090051 63 257 7.0 12.0 0.03 0.08 0.03 84 1012.1
20260904084549 64 266 8.0 12.0 0.00 0.05 0.00 83 1012.5
20260904083055 64 259 1.0 8.0 0.00 0.05 0.00 84 1012.4
20260904080159 64 286 2.0 4.0 0.00 0.05 0.00 84 1011.7
20260904074557 64 290 1.0 4.0 0.00 0.05 0.00 84 1011.3
20260904073047 64 290 0.0 3.0 0.00 0.05 0.00 84 1011.7
20260904070043 64 276 3.0 6.0 0.00 0.05 0.00 83 1011.9
20260904064544 63 289 0.0 2.0 0.00 0.05 0.00 83 1012.4
20260904063054 63 289 0.0 1.0 0.00 0.05 0.00 81 1012.4